Regional Weather Roundup
Issued by NWS Charleston, SC

Current Version | Previous Version | Graphics & Text | Print | Product List | Glossary On
Versions: 1 2 3 4 5 6 7 8 9 10 11 12 13 14 15 16 17 18 19 20 21 22 23 24 25 26 27 28 29 30 31 32 33 34 35 36 37 38 39 40 41 42 43 44 45 46 47 48 49 50
000
ASUS42 KCHS 011611
RWRCHS

REGIONAL WEATHER ROUNDUP
NATIONAL WEATHER SERVICE CHARLESTON SC
1100 AM EST SUN MAR 01 2015

NOTE: "FAIR" INDICATES FEW OR NO CLOUDS BELOW 12,000 FEET WITH NO
SIGNIFICANT WEATHER AND/OR OBSTRUCTIONS TO VISIBILITY.

NOT ALL STATIONS ARE QUALITY CONTROLLED BY THE NATIONAL
WEATHER SERVICE. USE DATA WITH CAUTION...ESPECIALLY
DEWPOINT OBSERVATIONS.

SCZ027-030-031-034>040-042>050-011700-
...SOUTHEAST SOUTH CAROLINA...

CITY           SKY/WX    TMP DP  RH WIND       PRES   REMARKS
N CHARLESTON   LGT RAIN  41  39  93 N9        30.50S FOG
WATERFRONT PRK NOT AVBL
MOUNT PLEASANT DRIZZLE   43  43 100 NW7       30.49F
PINOPOLIS        N/A     39  37  93 N9        30.45  WCI  33
MONCKS CORNER  CLOUDY    39  37  93 N7        30.52S FOG     WCI  34
SUMMERVILLE    LGT RAIN  39  39 100 N9        30.53S WCI  33
BEAUFORT MCAS  CLOUDY    42  40  92 N12       30.50F FOG
BEAUFORT ARPT  CLOUDY    43  43 100 N9        30.49F FOG
HILTON HEAD IS LGT RAIN  43  43 100 N8        30.50
WALTERBORO     LGT RAIN  39  39 100 N6        30.53S WCI  35
ALLENDALE      CLOUDY    39  37  93 N6        30.51F FOG     WCI  35

...SOUTHERN MIDLANDS AND PEE DEE...

CITY           SKY/WX    TMP DP  RH WIND       PRES   REMARKS
GEORGETOWN     NOT AVBL
KINGSTREE      NOT AVBL
ORANGEBURG     RAIN      37  33  85 N5        30.52F FOG     WCI  33
BARNWELL       CLOUDY    37  37 100 N3        30.53F
AIKEN          CLOUDY    36  36 100 N7        30.55S FOG     WCI  30
MANNING        RAIN     N/A N/A N/A N8        30.53F
COLUMBIA       CLOUDY    37  35  92 N5        30.53F FOG     WCI  33
SUMTER         LGT RAIN  36  32  87 N6        30.52F WCI  31
FLORENCE       RAIN      36  33  89 N8        30.53F FOG     WCI  30
MYRTLE BEACH   CLOUDY    48  39  71 NW7       30.49F
N MYRTLE BEACH CLOUDY    52  41  66 N6        30.47F

$$

GAZ063-065-086>088-099>101-113>116-118-119-134>141-150-011700-
...SOUTHEAST GEORGIA...

CITY           SKY/WX    TMP DP  RH WIND       PRES   REMARKS
SAVANNAH ARPT  LGT RAIN  43  41  93 N8        30.50F VSB 1
HUNTER AAF     RAIN      44  44 100 NW2       30.46F FOG
FORT STEWART   CLOUDY    44  42  93 N5        30.47F
STATESBORO     CLOUDY    40  40 100 N6        30.51F FOG     WCI  36
SYLVANIA       DRIZZLE   39  39 100 NE8       30.51F WCI  34
CLAXTON        CLOUDY    41  41 100 N5        30.50F FOG

...CSRA...CENTRAL AND FAR SOUTHEAST GEORGIA...

CITY           SKY/WX    TMP DP  RH WIND       PRES   REMARKS
THOMSON        CLOUDY    39  39 100 NE5       30.56F WCI  35
AUGUSTA-BUSH   CLOUDY    38  35  89 NE6       30.53F WCI  33
AUGUSTA-DANIEL CLOUDY    39  36  89 N6        30.52F WCI  35
SWAINSBORO     CLOUDY    41  41 100 NE5       30.51F FOG
VIDALIA        CLOUDY    43  43 100 NE7       30.50F FOG
EASTMAN        CLOUDY    43  43 100 NE5       30.52F FOG
HAZLEHURST     CLOUDY    45  45 100 NE3       30.48S FOG
ALMA           CLOUDY    45  43  93 N6        30.48S FOG
WAYCROSS       CLOUDY    49  48  97 N7        30.47S FOG
JESUP          CLOUDY    48  46  93 N5        30.48S FOG
BAXLEY         CLOUDY    45  45 100 NE6       30.48S FOG
BRUNSWICK      CLOUDY    50  46  87 N7        30.47F
SAINT SIMONS   CLOUDY    49  47  93 MISG      30.46F

$$

SCZ027-028-034-036>038-045-046-048>050-GAZ119-141-011700-
...LAKE AND SUPPLEMENTAL COASTAL OBSERVATIONS...

STATION/POSITION TIME  TEMP    WIND        PRES    WAVE   SWELL
                       AIR SEA DIR/SP/G            HT/PER HT/PER/DIR
                 (UTC) (F)     (DEG/KT/KT) (MB)    (FT/S) (FT/S/D)
UPR LAKE MARION  NOT AVBL
WINYAH BAY       1445   43      50/  9     1031.0
LAKE MURRAY      1500   34     350/  3/  5 1033.9F
ACE BASIN NERRS  NOT AVBL
FORT PULASKI     1500   43 48  350/  9/ 11 1032.8R
SAPELO ISLAND    1500   45      10/ 11     1032.0R

$$

ANZ835-935-AMZ111-154-330-350-352-354-370-450-454-472-011700-
...C-MAN AND BUOY OBSERVATIONS...

STATION/POSITION TIME  TEMP    WIND        PRES    WAVE   SWELL
                       AIR SEA DIR/SP/G            HT/PER HT/PER/DIR
                 (UTC) (F)     (DEG/KT/KT) (MB)    (FT/S) (FT/S/D)
BUOY 41004       1550   70 68  140/ 17/ 21 1030.1F   8/ 8   3/ 9
BUOY 41008       1550   48 52   20/ 17/ 19 1031.1S   6/ 8   3/100/ 8
FOLLY BEACH CMAN 1600   43     340/  9/ 12 1032.7S
CAPERS NEARSHORE NOT AVBL
FRIPP NEARSHORE  1500   43      10/ 16/ 17 1030.8F


STATION/POSITION TIME  TEMP    WIND        PRES    WAVE   SWELL
                       AIR SEA DIR/SP/G            HT/PER HT/PER/DIR
                 (UTC) (F)     (DEG/KT/KT) (MB)    (FT/S) (FT/S/D)
5E ST. MARYS GA  1521      52                N/A     6/ 9   2/ 90/11
FRYING PAN BUOY  1550   65 61  130/ 19/ 21 1030.9F   6/ 6
BUOY 41025       NOT AVBL
CAPE LOOKOUT NC  1500   47      30/  7/  9 1033.6F
BUOY 41002       1550   68 72  100/ 17/ 21 1033.1F   9/ 9   5/ 70/ 9
BUOY 41010       1520   71 74   90/ 19/ 25 1029.2F
ST AUGUSTINE FL  1600   52     360/ 16/ 18 1030.6F


$$


USA.gov is the U.S. government's official web portal to all federal, state and local government web resources and services.